COSMOS 1275 DEB, 12672

Orbit data source: Space-Track

COSMOS 1275 DEB, 12672 is space debris in LEO originally from a launch on Thu, 04 Jun 1981 UTC launched from the Plesetsk Missile And Space Complex (PKMTR). Debris objects in space refer to the collection of defunct objects orbiting the Earth. Examples of debris include non-operational satellites, rocket bodies, and fragments generated from explosions, collisions, or faulty payload assembly.

Loading next visibility...
Identifier
12672, 1981-053AC
Orbit
LEO
Last TLE update
18 hours ago
Origin
Manufacturer
Unknown
Mission
Spacecraft
Bus & Motor
Unknown
Mass
Unknown
Launch date (UTC)
1981-06-04 (44 years ago)
Launch vehicle
Unknown
Launch site
Plesetsk Missile And Space Complex (PKMTR)
Object type
Payload
Rocket body
Debris
Shape & HBR
Unknown
Radar Cross Section
Medium (>0.1 m² and <1 m²)

Expand to show TLE details & history

TLE from 18 hours ago
0 COSMOS 1275 DEB
1 12672U 81053AC  25186.18091163  .00000367  00000-0  31729-3 0  9997
2 12672  82.9419  71.1668 0026086 158.4068  10.5999 13.83650106210410
Epoch: 2025-07-05T04:20Z
TLE epoch observation values (Epoch: 2025-07-05T04:20:30.764Z)
Latitude
10.80468°
Longitude
-98.73093°
Altitude
934.333 km
Speed
7.395 km/s
True Right ascension
16h 39m 16s
True Declination
10° 44' 35"
Sunlit
Object was in full shadow at epoch
Visualization orbit readout
Latitude
-76.91406°
Longitude
-65.94334°
Altitude
982.705 km
Speed
7.358 km/s
Apparent Right ascension
21h 16m 54s
Apparent Declination
-61° 19' 04"
Sunlit
Object is in full shadow
Visualization observer readout
Local Sidereal Time
10:03:52
Azimuth
165.264° S
Elevation
-67.42°
Doppler factor
1
Orbital elements
Apogee altitude
967.217 km
Perigee altitude
928.994 km
Semi-major axis
7,326.243 km
Eccentricity
0.00261
Inclination
82.9419°
RAAN
71.1668°
Arg. of periapsis
158.4068°
True anomaly
Unknown
Mean anomaly
10.5999°
Eccentric anomaly
Unknown
Mean motion
3.46116 °/min
Orbital period
104.01 mins
BSTAR
0.00031729
Loading maneuver chart data...
Loading SW <> Apogee altitude chart data...
Loading historical data...
Loading historical data...
Loading historical data...
Loading historical data...
Loading historical data...
Loading historical data...
Loading historical data...

COSMOS 1275 DEB Visibility forecast

Observer location: undefined°, undefined°

Span
Click to sort rows by Start time (UTC) header in descending order
Start Az.
Max El. time (UTC)
Max El. Az.
Max El.
End time (UTC)
End Az.
5 mins2025-07-06 02:41:43.863Z38.862° NE2025-07-06 02:44:43.863Z70.705° E14.31°2025-07-06 02:46:43.863Z92.01° ESE
10 mins2025-07-06 04:25:43.863Z347.981° N2025-07-06 04:29:43.863Z289.238° WNW44.041°2025-07-06 04:35:43.863Z181.044° SSW
9 mins2025-07-06 16:05:43.863Z142.193° SSE2025-07-06 16:09:43.863Z92.98° ESE27.897°2025-07-06 16:14:43.863Z30.051° NE
9 mins2025-07-06 17:50:43.863Z227.668° WSW2025-07-06 17:54:43.863Z283.862° WNW30.206°2025-07-06 17:59:43.863Z346.988° N
|